CDT,Max TemperatureF,Mean TemperatureF,Min TemperatureF,Max Dew PointF,MeanDew PointF,Min DewpointF,Max Humidity, Mean Humidity, Min Humidity, Max Sea Level PressureIn, Mean Sea Level PressureIn, Min Sea Level PressureIn, Max VisibilityMiles, Mean VisibilityMiles, Min VisibilityMiles, Max Wind SpeedMPH, Mean Wind SpeedMPH, Max Gust SpeedMPH,PrecipitationIn, CloudCover, Events, WindDirDegrees
2012-9-1,89,76,64,55,50,43,64,43,25,30.14,30.02,29.85,10,10,10,29,12,37,0.00,0,,152
2012-9-2,84,73,60,64,56,48,77,55,38,29.85,29.79,29.75,10,10,10,24,17,32,0.00,0,Rain,213
2012-9-3,84,66,48,59,52,46,100,70,28,29.95,29.88,29.83,10,10,10,25,7,30,0.02,1,Rain,183
2012-9-4,84,70,57,57,51,43,88,58,23,29.88,29.81,29.76,10,10,7,17,6,24,0.00,1,Thunderstorm,311
2012-9-5,75,63,51,54,48,45,94,59,34,29.89,29.85,29.80,10,10,5,21,8,30,0.03,2,Rain,283
2012-9-6,64,55,46,55,51,43,94,81,67,30.00,29.93,29.87,10,10,7,10,3,,0.01,3,Rain,331
2012-9-7,64,55,44,50,47,43,93,71,52,30.11,30.07,30.00,10,10,10,20,9,25,0.00,3,,345
2012-9-8,66,55,42,48,44,39,93,68,46,30.16,30.01,29.89,10,10,10,29,11,38,0.00,2,,330
2012-9-9,73,54,35,46,40,36,100,65,27,30.23,30.12,29.94,10,9,0,14,4,18,0.00,0,Fog,196
2012-9-10,87,72,57,48,45,43,63,43,22,29.93,29.71,29.58,10,10,5,26,15,37,0.00,0,,183
2012-9-11,77,64,51,54,41,28,72,45,18,29.92,29.71,29.60,10,10,10,25,10,34,0.00,0,,323
2012-9-12,71,60,46,36,28,18,54,35,14,30.20,30.07,29.92,10,10,7,34,13,41,0.00,0,,275
2012-9-13,69,51,33,37,30,25,75,46,21,30.33,30.28,30.20,10,10,10,15,4,23,0.00,1,Rain,58
2012-9-14,73,54,35,37,33,28,87,50,20,30.37,30.30,30.19,10,10,7,10,4,,0.00,0,,123
2012-9-15,82,62,42,41,37,34,70,42,19,30.19,29.98,29.82,10,10,10,16,10,21,0.00,0,,153
2012-9-16,60,50,37,46,40,30,82,61,44,30.11,30.02,29.84,10,10,10,22,11,25,0.00,1,Rain,359
2012-9-17,57,45,33,37,33,27,87,62,38,30.11,30.08,30.06,10,10,10,18,7,23,0.00,2,,349
2012-9-18,60,45,30,37,32,27,87,60,31,30.08,29.92,29.63,10,10,10,22,7,28,0.00,1,,182
2012-9-19,62,54,46,46,40,34,77,55,39,29.88,29.69,29.54,10,10,7,31,19,43,0.00,3,Rain,314
2012-9-20,62,50,39,46,36,30,93,60,31,29.93,29.89,29.84,10,10,10,28,10,33,0.03,2,Rain,310
2012-9-21,62,48,35,41,33,18,93,62,27,30.09,29.91,29.81,10,10,10,31,9,45,0.01,2,Rain,335
2012-9-22,53,40,28,34,29,25,93,63,35,30.31,30.25,30.10,10,10,10,21,13,29,0.00,1,,350
2012-9-23,60,43,26,32,25,21,93,54,25,30.33,30.24,30.04,10,10,10,10,3,12,0.00,0,,263
2012-9-24,73,56,39,43,31,21,66,43,27,30.03,29.85,29.76,10,10,7,24,12,31,0.00,0,,313
2012-9-25,59,42,26,37,32,25,93,67,39,30.05,29.97,29.91,10,10,10,14,6,18,0.00,0,,11
2012-9-26,62,44,26,34,30,23,93,57,29,30.19,30.15,30.05,10,10,10,8,2,,0.00,0,,141
2012-9-27,73,54,35,37,33,27,75,49,25,30.22,30.16,30.08,10,10,7,16,9,21,0.00,0,,167
2012-9-28,77,62,48,43,37,32,58,43,28,30.14,30.10,30.06,10,10,7,12,7,,0.00,0,,168
2012-9-29,84,64,44,41,36,30,76,43,15,30.11,30.04,29.97,10,10,7,13,5,16,0.00,0,,167
2012-9-30,84,67,50,48,39,36,58,42,23,29.96,29.89,29.80,10,10,10,24,11,28,0.00,0,,213